Showing default

CANX-5, 40056

Orbit data source: Space-Track

CANX-5, 40056 is a payload satellite owned by UTIAS-SFL (CA) in SSO that was launched on Mon, 30 Jun 2014 UTC via a PSLV launch vehicle from the Sirharikota (SRI). Payload-class satellites include a variety of spacecraft equipped with specific instruments for various scientific and technological missions. These include communications satellites like Starlink; space stations such as the ISS; scientific satellites like the Hubble; Earth observation satellites from companies like Planet Labs, Umbra, and HawkEye 360; GPS; miniature CubeSats for education and research; and military/defense satellites.

Loading next visibility...
Identifier
40056, 2014-034D
Orbit
SSO
Country
Flag of CACA
Related business
Manufacturer
UTIAS-SFL
Mission
Operational Amateur Technology
Bus & Motor
GNB, Unknown motor
Mass
7 kg wet, 7 kg dry
Launch date (UTC)
2014-06-30 (12 years ago)
Launch vehicle
PSLV
Launch site
Sirharikota (SRI)
Object type
Payload
Rocket body
Debris
Shape & HBR
Box + 4 Ant, 0.1 m
Radar Cross Section
0.060 m², Medium (>0.1 m² and < 1m²)

Expand to show TLE details & history
Last TLE update: 5 hours ago

TLE from 5 hours ago
0 CANX-5
1 40056U 14034D   26128.15977009  .00000759  00000-0  10476-3 0  9996
2 40056  98.3176   2.0357 0013658 135.7195 224.5111 14.81207980629410
Epoch: 2026-05-08T03:50Z
TLE epoch observation values (Epoch: 2026-05-08T03:50:04.135Z)
Latitude
-0.00009°
Longitude
78.52293°
Altitude
635.353 km
Speed
7.537 km/s
True Right ascension
00h 08m 08s
True Declination
0° 00' 00"
Sunlit
Object was in daylight at epoch
Visualization orbit readout
Latitude
Unknown
Longitude
Unknown
Altitude
Unknown
Speed
Unknown
Apparent Right ascension
Unknown
Apparent Declination
Unknown
Sunlit
N/A
Visualization observer readout
Local Sidereal Time
17:06:27
Azimuth
Unknown
Elevation
Unknown
Doppler factor
Unknown
Orbital elements
Apogee altitude
632.134 km
Perigee altitude
613.011 km
Semi-major axis
7,000.709 km
Eccentricity
0.00137
Inclination
98.3176°
RAAN
2.0357°
Arg. of periapsis
135.7195°
True anomaly
224.40151°
Mean anomaly
224.5111°
Eccentric anomaly
224.45629°
Mean motion
3.70536 °/min
Orbital period
97.16 mins
BSTAR
0.00010476
Loading maneuver chart data...
Computing Atmospheric mass density...
Loading historical data...
Loading historical data...
Loading historical data...
Loading historical data...
Loading historical data...
Loading historical data...
Loading historical data...
Other satellites on launch #34 in the year 2014 (2014-06-30 UTC)

Documentation

Showing up to 5 results
|